Muncie, IN

6:28 AM EST on December 14, 2017 (GMT -0500)
Delaware County-Johnson

Weather History for KMIE - March, 2014

Change the Weather History Date:

Saturday, March 15, 2014

  Actual Average Record
Temperature  
Mean Temperature 41 °F 39 °F  
Max Temperature 49 °F 49 °F 79 °F (2012)
Min Temperature 32 °F 30 °F 9 °F (1993)
Degree Days  
Heating Degree Days 24 26  
Month to date heating degree days 500 427  
Since 1 July heating degree days 5410 4810  
Cooling Degree Days 0 0  
Month to date cooling degree days 0 0  
Year to date cooling degree days 0 0  
Moisture  
Dew Point 30 °F    
Average Humidity 64    
Maximum Humidity 82    
Minimum Humidity 46    
Precipitation  
Precipitation 0.00 in 0.09 in 1.32 in (2007)
Month to date precipitation 1.08 1.31  
Year to date precipitation 4.04 5.85  
Sea Level Pressure  
Sea Level Pressure 30.03 in    
Wind  
Wind Speed 10 mph (NW)    
Max Wind Speed 16 mph    
Max Gust Speed 23 mph    
Visibility 10 miles    
Events      
T = Trace of Precipitation, MM = Missing Value Source: NWS Daily Summary

Daily Weather History Graph

Daily Weather History Graph

Search for Another Location

Airport or City:

Trip Planner

Search our weather history database for the weather conditions in past years. The results will help you decide how hot, cold, wet, or windy it might be!

Date:

Astronomy

Mar. 15, 2014 Rise Set
Actual Time 7:53 AM EDT 7:48 PM EDT
Civil Twilight 7:26 AM EDT 8:15 PM EDT
Nautical Twilight 6:54 AM EDT 8:47 PM EDT
Astronomical Twilight 6:22 AM EDT 9:19 PM EDT
Moon 7:07 PM EDT (3/15) 7:04 AM EDT (3/15)
Length of Visible Light 12h 49m
Length of Day
11h 55m
Waxing Gibbous, 99% of the Moon is Illuminated
Mar 15
Waxing Gibbous
Mar 16
Full
Mar 23
Last Quarter
Mar 30
New
Apr 7
First Quarter

Hourly Weather History & Observations

Time (EDT) Temp. Windchill Dew Point Humidity Pressure Visibility Wind Dir Wind Speed Gust Speed Precip Events Conditions
12:53 AM 42.1 °F 35.2 °F 33.1 °F 70% 29.89 in 10.0 mi WNW 12.7 mph - N/A   Clear
1:53 AM 39.9 °F 33.4 °F 32.0 °F 73% 29.89 in 10.0 mi West 10.4 mph - N/A   Clear
2:53 AM 37.9 °F 30.0 °F 30.9 °F 76% 29.91 in 10.0 mi West 12.7 mph - N/A   Clear
3:53 AM 37.0 °F 28.9 °F 30.9 °F 79% 29.91 in 10.0 mi West 12.7 mph - N/A   Clear
4:53 AM 37.0 °F 28.9 °F 30.0 °F 76% 29.91 in 10.0 mi West 12.7 mph - N/A   Clear
5:53 AM 37.0 °F 28.5 °F 28.9 °F 73% 29.92 in 10.0 mi West 13.8 mph - N/A   Clear
6:53 AM 36.0 °F 29.0 °F 28.9 °F 76% 29.95 in 10.0 mi West 9.2 mph - N/A   Clear
7:53 AM 35.1 °F 27.4 °F 28.9 °F 78% 29.97 in 10.0 mi West 10.4 mph - N/A   Clear
8:53 AM 37.0 °F 30.4 °F 30.0 °F 76% 30.01 in 10.0 mi West 9.2 mph - N/A   Clear
9:53 AM 37.9 °F 32.1 °F 32.0 °F 79% 30.03 in 10.0 mi WNW 8.1 mph - N/A   Clear
10:53 AM 39.9 °F 32.5 °F 30.0 °F 68% 30.06 in 10.0 mi WNW 12.7 mph - N/A   Partly Cloudy
11:53 AM 42.1 °F 37.1 °F 30.9 °F 65% 30.08 in 10.0 mi WNW 8.1 mph - N/A   Clear
12:53 PM 44.1 °F 39.5 °F 32.0 °F 63% 30.09 in 10.0 mi NW 8.1 mph - N/A   Clear
1:53 PM 46.0 °F 41.0 °F 28.9 °F 51% 30.10 in 10.0 mi WNW 10.4 mph - N/A   Clear
2:53 PM 46.9 °F - 30.9 °F 54% 30.09 in 10.0 mi NNW 11.5 mph - N/A   Scattered Clouds
3:53 PM 48.0 °F - 28.9 °F 48% 30.08 in 10.0 mi NW 8.1 mph - N/A   Clear
4:53 PM 48.9 °F - 30.0 °F 48% 30.08 in 10.0 mi NNW 8.1 mph - N/A   Clear
5:53 PM 46.9 °F - 30.0 °F 52% 30.08 in 10.0 mi NNW 6.9 mph - N/A   Scattered Clouds
6:53 PM 46.9 °F - 30.9 °F 54% 30.09 in 10.0 mi North 8.1 mph - N/A   Mostly Cloudy
7:53 PM 42.1 °F 37.1 °F 28.0 °F 58% 30.10 in 10.0 mi NNE 8.1 mph - N/A   Clear
8:53 PM 39.0 °F 32.3 °F 30.9 °F 73% 30.12 in 10.0 mi NNE 10.4 mph - N/A   Clear
9:53 PM 36.0 °F 29.0 °F 28.9 °F 76% 30.15 in 10.0 mi NNE 9.2 mph - N/A   Clear
10:53 PM 35.1 °F 25.9 °F 28.0 °F 76% 30.15 in 10.0 mi NE 13.8 mph - N/A   Clear
11:53 PM 34.0 °F 24.6 °F 26.1 °F 73% 30.16 in 10.0 mi NNE 13.8 mph - N/A   Clear